CT1OY Oeiras PT current weather conditions

sailwx.info

Wind from 242

Air temperature 7.2° C
Dewpoint 5.4° C

Last reported at 2017-Jan-25 00:36 UTC.
Time now 2017-Jan-25 01:24 UTC

Location: N 38°44' W 009°17'.
View on Google Maps.

See reports from other nearby stations

  
Tides and Currents Weather Stations Pressure Air Temp Water Temp Dewpoint Dewpoint Depression Visibility Wind Speed Wind Dir Waves Ship Positions
date/time (UTC)wind fromknots sea level pressurealtimeterstation pressurevisibilityair tempwater tempwave heightnotes
2017-Jan-25 00:36 242 7.2
2017-Jan-25 00:26 242 7.8
2017-Jan-25 00:16 242 7.2
2017-Jan-25 00:06 242 6.7
2017-Jan-24 23:46 242 6.1
2017-Jan-24 23:36 242 6.1
2017-Jan-24 23:16 242 6.7
2017-Jan-24 23:06 243 6.7
2017-Jan-24 22:56 242 7.2
2017-Jan-24 22:46 242 7.8
2017-Jan-24 22:26 243 7.8
2017-Jan-24 22:06 242 8.3
2017-Jan-24 21:56 242 8.3
2017-Jan-24 21:36 260 8.3
2017-Jan-24 21:26 285 8.3
2017-Jan-24 21:16 339 8.9
2017-Jan-24 20:56 276 9.4
2017-Jan-24 20:46 284 9.4
2017-Jan-24 20:36 274 9.4
2017-Jan-24 20:16 287 9.4
2017-Jan-24 20:06 266 9.4
2017-Jan-24 19:56 273 10.0
2017-Jan-24 19:46 283 10.0
2017-Jan-24 19:36 015 10.0
2017-Jan-24 19:26 306 10.0
2017-Jan-24 17:46 290 11.7
2017-Jan-24 17:36 300 12.2
2017-Jan-24 17:26 015 12.2
2017-Jan-24 17:16 256 12.8
2017-Jan-24 17:06 297 12.8
2017-Jan-24 16:46 305 13.9
2017-Jan-24 16:36 280 14.4
2017-Jan-24 16:16 271 16.1
2017-Jan-24 16:06 352 16.1
2017-Jan-24 15:56 335 16.1
2017-Jan-24 15:46 304 15.6
2017-Jan-24 15:36 059 15.6
2017-Jan-24 15:06 093 15.0
2017-Jan-24 14:56 117 15.0
2017-Jan-24 14:46 228 15.0
2017-Jan-24 14:36 236 15.0
2017-Jan-24 13:56 129 15.0
2017-Jan-24 13:46 004 14.4
2017-Jan-24 13:16 232 15.6
2017-Jan-24 13:06 162 15.6
2017-Jan-24 12:46 277 15.0
2017-Jan-24 11:56 105 15.0
2017-Jan-24 11:46 025 14.4
2017-Jan-24 11:36 309 14.4
2017-Jan-24 11:26 285 13.3
2017-Jan-24 11:16 334 13.3
2017-Jan-24 10:46 036 12.2
2017-Jan-24 10:36 049 12.2
2017-Jan-24 10:26 297 11.7
2017-Jan-24 10:16 285 11.7
2017-Jan-24 10:06 299 11.1
2017-Jan-24 09:56 191 11.1
2017-Jan-24 09:46 346 10.6
2017-Jan-24 09:36 291 10.0
2017-Jan-24 09:06 260 8.9
2017-Jan-24 08:56 015 8.9
2017-Jan-24 08:46 294 8.9
2017-Jan-24 08:26 313 8.3
2017-Jan-24 08:16 269 8.3
2017-Jan-24 08:06 338 8.3
2017-Jan-24 07:56 293 7.8
2017-Jan-24 07:16 269 7.8
2017-Jan-24 06:56 267 7.8
2017-Jan-24 06:36 297 8.3
2017-Jan-24 05:36 297 8.3
2017-Jan-24 05:26 287 8.3
2017-Jan-24 05:06 300 0 8.9
2017-Jan-24 04:56 355 8.9
2017-Jan-24 04:46 286 8.3
2017-Jan-24 04:36 274 8.3
2017-Jan-24 04:16 350 8.3
2017-Jan-24 03:56 337 8.3
2017-Jan-24 03:26 262 8.3
2017-Jan-24 03:16 281 7.8
2017-Jan-24 02:56 290 7.8
2017-Jan-24 02:46 296 7.8
2017-Jan-24 02:36 275 7.8
2017-Jan-24 02:26 294 7.8
2017-Jan-24 02:16 300 8.3
2017-Jan-24 02:06 281 8.3
2017-Jan-24 01:56 274 8.3
2017-Jan-24 01:46 273 8.3
2017-Jan-24 01:36 295 8.3
2017-Jan-24 01:16 286 8.3
2017-Jan-24 00:56 312 8.3
2017-Jan-24 00:46 293 8.3
2017-Jan-24 00:26 283 8.3
2017-Jan-24 00:16 290 8.3
2017-Jan-24 00:06 300 8.3
2017-Jan-23 23:36 285 8.3
2017-Jan-23 23:26 289 8.3
2017-Jan-23 23:16 311 8.9
2017-Jan-23 23:06 307 8.9
2017-Jan-23 22:56 302 8.9
2017-Jan-23 22:46 250 8.9
2017-Jan-23 22:36 003 8.9
2017-Jan-23 22:26 319 8.9
2017-Jan-23 22:06 296 9.4
2017-Jan-23 21:56 307 9.4
2017-Jan-23 21:46 289 9.4
2017-Jan-23 21:36 284 8.9
2017-Jan-23 21:26 294 8.9
2017-Jan-23 19:56 290 9.4
2017-Jan-23 19:36 286 9.4
2017-Jan-23 19:26 281 9.4
2017-Jan-23 19:06 260 10.0
2017-Jan-23 18:36 290 10.0
2017-Jan-23 18:26 301 10.6
2017-Jan-23 18:16 294 10.6
2017-Jan-23 17:46 284 11.1
2017-Jan-23 17:36 308 11.1
2017-Jan-23 17:26 249 11.7
2017-Jan-23 17:06 297 12.2
2017-Jan-23 16:46 271 12.8
2017-Jan-23 16:36 025 0 12.8
2017-Jan-23 16:16 253 13.3
2017-Jan-23 15:56 228 13.3
2017-Jan-23 15:36 243 14.4
2017-Jan-23 15:16 298 1 14.4
2017-Jan-23 15:06 272 14.4
2017-Jan-23 14:36 271 14.4
2017-Jan-23 14:06 058 0 15.0
2017-Jan-23 13:46 263 15.0
2017-Jan-23 13:36 240 15.0
2017-Jan-23 13:26 255 14.4
2017-Jan-23 13:06 356 14.4
2017-Jan-23 12:56 013 14.4
2017-Jan-23 12:26 300 13.3
2017-Jan-23 12:06 278 12.8
2017-Jan-23 11:56 288 12.8
2017-Jan-23 11:46 305 12.8
2017-Jan-23 11:36 273 12.2
2017-Jan-23 11:16 342 12.2
2017-Jan-23 11:06 294 12.2
2017-Jan-23 10:36 314 11.1
2017-Jan-23 10:26 249 10.6
2017-Jan-23 10:16 295 10.6
2017-Jan-23 09:56 317 10.0
2017-Jan-23 09:36 294 8.9
2017-Jan-23 09:06 326 8.3
2017-Jan-23 08:46 302 8.3
2017-Jan-23 08:26 296 7.8
2017-Jan-23 08:16 288 7.8
2017-Jan-23 07:46 288 1 7.8
2017-Jan-23 07:26 330 7.8
2017-Jan-23 06:56 299 7.8
2017-Jan-23 06:46 296 7.8
2017-Jan-23 06:36 312 7.8
2017-Jan-23 06:26 291 8.3
2017-Jan-23 06:16 286 8.3
2017-Jan-23 06:06 302 8.3
2017-Jan-23 05:56 294 7.8
2017-Jan-23 05:46 276 7.8
2017-Jan-23 05:36 354 7.8
2017-Jan-23 05:26 338 8.3
2017-Jan-23 05:06 318 8.3
2017-Jan-23 04:56 269 8.3
2017-Jan-23 03:56 250 8.9
2017-Jan-23 03:36 281 8.9
2017-Jan-23 03:26 302 8.3
2017-Jan-23 03:16 314 8.3
2017-Jan-23 03:06 274 8.3
2017-Jan-23 02:56 278 8.3
2017-Jan-23 02:16 295 8.9
2017-Jan-23 02:06 311 8.9
2017-Jan-23 01:46 315 8.9
2017-Jan-23 01:26 303 8.9
2017-Jan-23 01:16 295 9.4